Find OneWeb SL0416

NORAD ID: 51625 Int'l Des: 2022-012 Owner: ONEWEBN Country: UK Constellation: oneweb operational
LEOCIRCULARPOLARONEWEB_TYPE

現在のビュー

3D地球を読み込み中...

About OneWeb SL0416

OneWeb SL0416 (NORAD 51625) is a oneweb constellation satellite launched Feb 10, 2022 by ONEWEBN of UK. It operates in LEO, CIRCULAR, POLAR, ONEWEB_TYPE orbit with a mass of 148.00 kg.

OneWeb SL0416について

説明を読み込み中...

次回通過

Passes for default location (London). Set your location on the main map for personalized predictions.

高度履歴

Loading altitude history...

軌道要素

1 51625U 22012D 26170.08313206 -.00000307 00000-0 -91632-3 0 9991
2 51625 87.8829 35.9058 0002270 91.7464 268.3924 13.10280278209574
Epoch: Jun 19, 2026 • Age: 8 hours

現在のステータス

高度 1225.9 km
速度 7.24 km/s
衛星直下点 -5.17°S, 154.36°E
打ち上げ日 Feb 10, 2022
運用期間 4.3 years
タイプ internet

技術仕様

分類 Payload
質量 148.00 kg
乾燥質量 140.00 kg
総質量 148.00 kg
長さ 1.30 m
直径 1.00 m
スパン 5.00 m
形状 Trapezoid+2 pan
製造者 ONEWUS
バスタイプ ARROW
フェーズステータス In Orbit
所有者/国 ONEWEBN/UK

Most Searched